Weather History for Henderson, KY

Change the Weather History Date:

Monday, March 25, 2013

  Actual Average Record
Temperature  
Mean Temperature 34 °F -  
Max Temperature 37 °F 57 °F 84 °F (2007)
Min Temperature 32 °F 37 °F 18 °F (1940)
Degree Days  
Heating Degree Days 32    
Moisture  
Dew Point 23 °F    
Average Humidity 64    
Maximum Humidity 70    
Minimum Humidity 60    
Precipitation  
Precipitation 0.00 in - - ()
Sea Level Pressure  
Sea Level Pressure 29.89 in    
Wind  
Wind Speed 19 mph (WNW)    
Max Wind Speed 24 mph    
Max Gust Speed 32 mph    
Visibility 8 miles    
Events      
Averages and records for this station are not official NWS values.
T = Trace of Precipitation, MM = Missing Value Source: NWS Daily Summary

Daily Weather History Graph

Daily Weather History Graph

Search for Another Location

Airport:

Trip Planner

Search our weather history database for the weather conditions in past years. The results will help you decide how hot, cold, wet, or windy it might be!

Date:

Astronomy

Mar. 25, 2013 Rise Set
Actual Time 6:46 AM CDT 7:07 PM CDT
Civil Twilight 6:20 AM CDT 7:33 PM CDT
Nautical Twilight 5:49 AM CDT 8:04 PM CDT
Astronomical Twilight 5:17 AM CDT 8:36 PM CDT
Moon 5:39 PM CDT (3/25) 5:27 AM CDT (3/25)
Length of Visible Light 13h 13m
Length of Day
12h 21m
Waxing Gibbous, 96% of the Moon is Illuminated
Mar 25
Waxing Gibbous
Mar 27
Full
Apr 2
Last Quarter
Apr 10
New
Apr 18
First Quarter

Hourly Weather History & Observations

Time (CDT) Temp. Windchill Dew Point Humidity Pressure Visibility Wind Dir Wind Speed Gust Speed Precip Events Conditions
12:15 AM 33.8 °F 21.9 °F 23.0 °F 65% 29.65 in 5.0 mi WNW 21.9 mph 25.3 mph N/A   Overcast
12:35 AM 33.8 °F 22.8 °F 21.2 °F 60% 29.66 in 10.0 mi WNW 18.4 mph 24.2 mph N/A   Overcast
12:55 AM 33.8 °F 22.8 °F 23.0 °F 65% 29.67 in 10.0 mi WNW 18.4 mph 25.3 mph N/A   Overcast
1:15 AM 33.8 °F 22.5 °F 23.0 °F 65% 29.68 in 10.0 mi WNW 19.6 mph 25.3 mph N/A   Overcast
1:35 AM 33.8 °F 22.2 °F 23.0 °F 65% 29.68 in 9.0 mi West 20.7 mph 26.5 mph N/A   Overcast
1:55 AM 32.0 °F 19.8 °F 21.2 °F 64% 29.69 in 4.0 mi West 20.7 mph 26.5 mph N/A   Overcast
2:15 AM 32.0 °F 19.5 °F 23.0 °F 69% 29.69 in 5.0 mi WNW 21.9 mph 28.8 mph N/A   Overcast
2:55 AM 32.0 °F 20.1 °F 23.0 °F 69% 29.69 in 7.0 mi WNW 19.6 mph 25.3 mph N/A   Overcast
3:15 AM 32.0 °F 18.9 °F 23.0 °F 69% 29.70 in 8.0 mi WNW 24.2 mph 29.9 mph N/A   Overcast
3:35 AM 32.0 °F 19.8 °F 21.2 °F 64% 29.70 in 10.0 mi WNW 20.7 mph 28.8 mph N/A   Overcast
3:55 AM 32.0 °F 20.1 °F 21.2 °F 64% 29.70 in 10.0 mi WNW 19.6 mph 29.9 mph N/A   Overcast
4:35 AM 32.0 °F 20.5 °F 21.2 °F 64% 29.71 in 10.0 mi WNW 18.4 mph 25.3 mph N/A   Overcast
4:55 AM 32.0 °F 19.5 °F 21.2 °F 64% 29.72 in 8.0 mi WNW 21.9 mph 26.5 mph N/A   Overcast
5:15 AM 32.0 °F 19.5 °F 21.2 °F 64% 29.73 in 7.0 mi WNW 21.9 mph - N/A   Overcast
5:35 AM 32.0 °F 19.8 °F 21.2 °F 64% 29.74 in 10.0 mi WNW 20.7 mph 26.5 mph N/A   Overcast
5:55 AM 32.0 °F 19.8 °F 21.2 °F 64% 29.74 in 10.0 mi WNW 20.7 mph 25.3 mph N/A   Overcast
6:15 AM 32.0 °F 19.2 °F 21.2 °F 64% 29.75 in 7.0 mi WNW 23.0 mph 26.5 mph N/A   Overcast
6:35 AM 32.0 °F 20.8 °F 21.2 °F 64% 29.76 in 7.0 mi WNW 17.3 mph 27.6 mph N/A   Overcast
6:55 AM 32.0 °F 21.2 °F 21.2 °F 64% 29.77 in 9.0 mi WNW 16.1 mph 23.0 mph N/A   Overcast
7:15 AM 32.0 °F 20.5 °F 21.2 °F 64% 29.78 in 10.0 mi WNW 18.4 mph 24.2 mph N/A   Overcast
7:35 AM 32.0 °F 19.5 °F 21.2 °F 64% 29.79 in 10.0 mi WNW 21.9 mph 26.5 mph N/A   Overcast
7:55 AM 32.0 °F 22.1 °F 21.2 °F 64% 29.80 in 9.0 mi WNW 13.8 mph 24.2 mph N/A   Overcast
8:15 AM 32.0 °F 20.5 °F 21.2 °F 64% 29.81 in 10.0 mi WNW 18.4 mph 27.6 mph N/A   Overcast
8:35 AM 32.0 °F 19.8 °F 21.2 °F 64% 29.82 in 10.0 mi WNW 20.7 mph 24.2 mph N/A   Overcast
8:55 AM 32.0 °F 21.2 °F 21.2 °F 64% 29.83 in 9.0 mi WNW 16.1 mph - N/A   Overcast
9:15 AM 32.0 °F 21.6 °F 21.2 °F 64% 29.84 in 2.0 mi WNW 15.0 mph - N/A   Overcast
9:35 AM 32.0 °F 21.2 °F 21.2 °F 64% 29.85 in 2.0 mi WNW 16.1 mph 20.7 mph N/A   Overcast
9:55 AM 32.0 °F 22.1 °F 21.2 °F 64% 29.86 in 2.0 mi WNW 13.8 mph - N/A   Overcast
10:15 AM 32.0 °F 20.5 °F 23.0 °F 69% 29.86 in 2.0 mi WNW 18.4 mph 24.2 mph N/A   Overcast
10:35 AM 33.8 °F 21.9 °F 23.0 °F 65% 29.88 in 4.0 mi WNW 21.9 mph 27.6 mph N/A   Overcast
10:55 AM 33.8 °F 23.5 °F 21.2 °F 60% 29.89 in 4.0 mi WNW 16.1 mph 27.6 mph N/A   Mostly Cloudy
11:15 AM 33.8 °F 22.8 °F 23.0 °F 65% 29.89 in 4.0 mi NW 18.4 mph 25.3 mph N/A   Mostly Cloudy
11:35 AM 33.8 °F 23.2 °F 23.0 °F 65% 29.90 in 7.0 mi WNW 17.3 mph 27.6 mph N/A   Overcast
11:55 AM 35.6 °F 24.8 °F 24.8 °F 65% 29.90 in 9.0 mi WNW 19.6 mph 26.5 mph N/A   Overcast
12:15 PM 35.6 °F 24.8 °F 23.0 °F 60% 29.91 in 9.0 mi WNW 19.6 mph 25.3 mph N/A   Overcast
12:35 PM 35.6 °F 25.2 °F 24.8 °F 65% 29.91 in 10.0 mi WNW 18.4 mph 25.3 mph N/A   Overcast
12:56 PM 35.6 °F 23.7 °F 23.0 °F 60% 29.92 in 9.0 mi WNW 24.2 mph 32.2 mph N/A   Overcast
1:15 PM 35.6 °F 25.5 °F 23.0 °F 60% 29.92 in 8.0 mi WNW 17.3 mph - N/A   Overcast
2:15 PM 35.6 °F 24.8 °F 24.8 °F 65% 29.94 in 10.0 mi WNW 19.6 mph 24.2 mph N/A   Overcast
2:35 PM 35.6 °F 25.5 °F 24.8 °F 65% 29.94 in 10.0 mi WNW 17.3 mph - N/A   Overcast
2:55 PM 35.6 °F 25.2 °F 23.0 °F 60% 29.94 in 10.0 mi NW 18.4 mph 25.3 mph N/A   Overcast
3:15 PM 35.6 °F 27.1 °F 23.0 °F 60% 29.95 in 4.0 mi WNW 12.7 mph 20.7 mph N/A   Overcast
3:35 PM 35.6 °F 24.5 °F 24.8 °F 65% 29.96 in 9.0 mi WNW 20.7 mph 24.2 mph N/A   Overcast
3:55 PM 35.6 °F 25.9 °F 24.8 °F 65% 29.97 in 5.0 mi NW 16.1 mph 23.0 mph N/A   Mostly Cloudy
4:15 PM 35.6 °F 25.2 °F 24.8 °F 65% 29.97 in 10.0 mi WNW 18.4 mph 23.0 mph N/A   Mostly Cloudy
4:35 PM 35.6 °F 25.9 °F 24.8 °F 65% 29.99 in 10.0 mi WNW 16.1 mph 23.0 mph N/A   Overcast
4:55 PM 35.6 °F 26.2 °F 26.6 °F 70% 29.99 in 10.0 mi WNW 15.0 mph 21.9 mph N/A   Overcast
5:15 PM 35.6 °F 26.2 °F 24.8 °F 65% 30.00 in 10.0 mi WNW 15.0 mph - N/A   Mostly Cloudy
5:35 PM 35.6 °F 25.2 °F 24.8 °F 65% 30.01 in 10.0 mi WNW 18.4 mph - N/A   Overcast
5:55 PM 35.6 °F 25.5 °F 24.8 °F 65% 30.02 in 7.0 mi WNW 17.3 mph 21.9 mph N/A   Mostly Cloudy
6:35 PM 33.8 °F 24.8 °F 23.0 °F 65% 30.04 in 5.0 mi WNW 12.7 mph - N/A   Overcast
6:55 PM 33.8 °F 23.5 °F 23.0 °F 65% 30.05 in 10.0 mi NW 16.1 mph 20.7 mph N/A   Overcast
7:15 PM 33.8 °F 25.3 °F 23.0 °F 65% 30.06 in 9.0 mi NW 11.5 mph - N/A   Overcast
7:35 PM 33.8 °F 25.8 °F 23.0 °F 65% 30.07 in 5.0 mi NW 10.4 mph - N/A   Overcast
8:15 PM 33.8 °F 23.9 °F 23.0 °F 65% 30.08 in 10.0 mi NW 15.0 mph - N/A   Overcast
8:35 PM 33.8 °F 24.3 °F 23.0 °F 65% 30.09 in 10.0 mi NW 13.8 mph - N/A   Overcast
8:55 PM 33.8 °F 25.3 °F 23.0 °F 65% 30.09 in 10.0 mi NW 11.5 mph - N/A   Overcast
9:15 PM 33.8 °F 24.8 °F 23.0 °F 65% 30.10 in 10.0 mi WNW 12.7 mph - N/A   Overcast
9:55 PM 33.8 °F 23.9 °F 23.0 °F 65% 30.11 in 10.0 mi NW 15.0 mph 20.7 mph N/A   Overcast
10:15 PM 33.8 °F 25.3 °F 21.2 °F 60% 30.12 in 10.0 mi WNW 11.5 mph - N/A   Overcast
10:35 PM 33.8 °F 24.3 °F 21.2 °F 60% 30.12 in 10.0 mi WNW 13.8 mph - N/A   Overcast
10:55 PM 33.8 °F 23.9 °F 21.2 °F 60% 30.12 in 10.0 mi NW 15.0 mph 18.4 mph N/A   Overcast
11:15 PM 33.8 °F 24.3 °F 21.2 °F 60% 30.12 in 10.0 mi NW 13.8 mph - N/A   Overcast
11:35 PM 32.0 °F 23.0 °F 21.2 °F 64% 30.12 in 10.0 mi WNW 11.5 mph - N/A   Overcast
11:55 PM 32.0 °F 22.5 °F 21.2 °F 64% 30.12 in 10.0 mi WNW 12.7 mph 18.4 mph N/A   Overcast